Meteo Giornale » Osservazioni meteo Stati Uniti (USA) » Alva
ore: 12:55 - Osservazioni Meteo Alva
Lat. 36° 46' N Lon. 98° 40' W Alt. 449 metri s.l.m.
38 °C
Sereno
Temp. 24 Ore
26 °C
41 °C
Sud/Sud-Ovest
20.3 Km/h
Dew point 16 °C
Umidità 27 %
Visibilità 10 Km
Il sole sorge alle ore 07:05
Il sole tramonta alle ore 20:04
| Data e Ora | Cielo e Fenomeni | T °C | DP °C | Um. % | Pres. hPa | Vis. km | Vento km/h | |
|---|---|---|---|---|---|---|---|---|
| Oggi h: 12:55 | Sereno | 38 | 16 | 27 | 1014 | 10 | S/SO 20.3 | |
| Oggi h: 12:35 | Sereno | 38 | 17 | 29 | 1014 | 10 | S/SO 25.9 | |
| Oggi h: 12:15 | Sereno | 37 | 17 | 30 | 1014 | 10 | S 25.9 | |
| Oggi h: 11:55 | Sereno | 36 | 17 | 32 | 1014 | 10 | SO 24 | |
| Oggi h: 11:35 | Sereno | 36 | 17 | 32 | 1015 | 10 | SO 24 | |
| Oggi h: 11:15 | Sereno | 35 | 17 | 34 | 1015 | 10 | S/SO 27.8 | |
| Oggi h: 10:55 | Sereno | 35 | 17 | 34 | 1015 | 10 | S/SO 29.6 | |
| Oggi h: 10:35 | Sereno | 34 | 17 | 36 | 1015 | 10 | S/SO 29.6 | |
| Oggi h: 10:15 | Sereno | 33 | 17 | 38 | 1015 | 10 | S/SO 33.3 | |
| Oggi h: 09:55 | Sereno | 32 | 17 | 40 | 1015 | 10 | S/SO 31.5 | |
| Oggi h: 09:35 | Sereno | 31 | 17 | 43 | 1015 | 10 | S/SO 29.6 | |
| Oggi h: 09:15 | Sereno | 31 | 16 | 40 | 1015 | 10 | S/SO 31.5 | |
| Oggi h: 08:55 | Sereno | 30 | 16 | 42 | 1015 | 10 | S/SO 29.6 | |
| Oggi h: 08:35 | Sereno | 29 | 16 | 45 | 1015 | 10 | S/SO 25.9 | |
| Oggi h: 08:15 | Sereno | 28 | 15 | 45 | 1014 | 10 | S 27.8 | |
| Oggi h: 07:55 | Sereno | 27 | 15 | 47 | 1014 | 10 | S 24 | |
| Oggi h: 07:35 | Sereno | 26 | 15 | 50 | 1014 | 10 | S 20.3 | |
| Oggi h: 07:15 | Sereno | 26 | 14 | 47 | 1014 | 10 | S/SO 18.5 | |
| Oggi h: 06:55 | Sereno | 26 | 14 | 47 | 1014 | 10 | S/SO 16.7 | |
| Oggi h: 06:35 | Sereno | 27 | 14 | 44 | 1014 | 10 | S/SO 16.7 | |
| Oggi h: 06:15 | Sereno | 27 | 14 | 44 | 1014 | 10 | S/SO 16.7 | |
| Oggi h: 05:55 | Sereno | 28 | 14 | 42 | 1014 | 10 | S/SO 20.3 | |
| Oggi h: 05:35 | Sereno | 28 | 14 | 42 | 1014 | 10 | S/SO 22.2 | |
| Oggi h: 05:15 | Sereno | 27 | 13 | 42 | 1014 | 10 | S 18.5 | |
| Oggi h: 04:55 | Sereno | 28 | 13 | 39 | 1013 | 10 | S/SO 18.5 | |
| Oggi h: 04:35 | Sereno | 28 | 13 | 39 | 1013 | 10 | S/SO 16.7 | |
| Oggi h: 04:15 | Sereno | 29 | 13 | 37 | 1013 | 11 | S/SO 18.5 | |
| Oggi h: 03:55 | Sereno | 29 | 13 | 37 | 1013 | 10 | S/SO 20.3 | |
| Oggi h: 03:35 | Sereno | 29 | 13 | 37 | 1012 | 10 | S 22.2 | |
| Oggi h: 03:15 | Sereno | 29 | 13 | 37 | 1012 | 10 | S 25.9 | |
| Oggi h: 02:55 | Sereno | 30 | 13 | 35 | 1012 | 10 | S 25.9 | |
| Oggi h: 02:35 | Sereno | 29 | 13 | 37 | 1012 | 10 | S 24 | |
| Oggi h: 02:15 | Sereno | 30 | 14 | 37 | 1012 | 10 | S 20.3 | |
| Oggi h: 01:55 | Sereno | 30 | 14 | 37 | 1012 | 10 | S 25.9 | |
| Oggi h: 01:35 | Sereno | 30 | 14 | 37 | 1012 | 10 | S 22.2 | |
| Oggi h: 01:15 | Sereno | 31 | 14 | 35 | 1012 | 10 | S 24 | |
| Oggi h: 00:55 | Sereno | 31 | 14 | 35 | 1012 | 10 | S 27.8 | |
| Oggi h: 00:35 | Sereno | 32 | 14 | 33 | 1011 | 10 | S 27.8 | |
| Oggi h: 00:15 | Sereno | 32 | 14 | 33 | 1011 | 10 | S 27.8 | |
| Ieri h: 23:55 | Sereno | 32 | 14 | 33 | 1011 | 10 | S 25.9 | |
| Ieri h: 23:35 | Sereno | 32 | 14 | 33 | 1011 | 10 | S 25.9 | |
| Ieri h: 23:15 | Sereno | 33 | 14 | 31 | 1011 | 10 | S 25.9 | |
| Ieri h: 22:55 | Sereno | 33 | 14 | 31 | 1011 | 10 | S 29.6 | |
| Ieri h: 22:35 | Sereno | 33 | 15 | 33 | 1011 | 10 | S 25.9 | |
| Ieri h: 22:15 | Sereno | 33 | 15 | 33 | 1011 | 10 | S 25.9 | |
| Ieri h: 21:55 | Sereno | 33 | 15 | 33 | 1011 | 10 | S 24 | |
| Ieri h: 21:35 | Sereno | 33 | 15 | 33 | 1010 | 10 | S 22.2 | |
| Ieri h: 21:15 | Sereno | 34 | 15 | 32 | 1010 | 10 | S 22.2 | |
| Ieri h: 20:55 | Sereno | 35 | 15 | 30 | 1010 | 10 | S 20.3 | |
| Ieri h: 20:35 | Sereno | 35 | 15 | 30 | 1010 | 10 | S 22.2 | |
| Ieri h: 20:15 | Sereno | 36 | 16 | 30 | 1009 | 10 | S 22.2 | |
| Ieri h: 19:55 | Sereno | 37 | 16 | 28 | 1009 | 10 | S 22.2 | |
| Ieri h: 19:35 | Sereno | 38 | 16 | 27 | 1009 | 10 | S 22.2 | |
| Ieri h: 19:15 | Sereno | 39 | 15 | 24 | 1009 | 10 | S/SO 27.8 | |
| Ieri h: 18:55 | Sereno | 39 | 16 | 26 | 1009 | 10 | S/SO 25.9 | |
| Ieri h: 18:35 | Sereno | 40 | 16 | 24 | 1009 | 10 | S/SO 35.2 | |
| Ieri h: 18:15 | Sereno | 40 | 16 | 24 | 1009 | 10 | S/SO 35.2 | |
| Ieri h: 17:55 | Sereno | 40 | 16 | 24 | 1009 | 10 | S/SO 37 | |
| Ieri h: 17:35 | Sereno | 40 | 16 | 24 | 1009 | 10 | S/SO 27.8 | |
| Ieri h: 17:15 | Sereno | 40 | 15 | 23 | 1009 | 10 | S 35.2 | |
| Ieri h: 16:55 | Sereno | 40 | 16 | 24 | 1009 | 10 | SO 27.8 | |
| Ieri h: 16:35 | Sereno | 41 | 15 | 21 | 1009 | 10 | SO 27.8 | |
| Ieri h: 16:15 | Sereno | 41 | 15 | 21 | 1009 | 10 | S/SO 33.3 | |
| Ieri h: 15:55 | Sereno | 40 | 16 | 24 | 1010 | 10 | S/SO 29.6 | |
| Ieri h: 15:35 | Sereno | 40 | 16 | 24 | 1010 | 10 | S/SO 24 | |
| Ieri h: 15:15 | Sereno | 41 | 16 | 23 | 1010 | 10 | S/SO 31.5 | |
| Ieri h: 14:55 | Sereno | 40 | 16 | 24 | 1010 | 10 | S/SO 25.9 | |
| Ieri h: 14:35 | Sereno | 40 | 16 | 24 | 1011 | 10 | S/SO 37 | |
| Ieri h: 14:15 | Sereno | 40 | 15 | 23 | 1011 | 10 | SO 35.2 | |
| Ieri h: 13:55 | Sereno | 40 | 16 | 24 | 1011 | 10 | S/SO 29.6 | |
| Ieri h: 13:35 | Sereno | 40 | 17 | 26 | 1011 | 10 | S/SO 35.2 | |



